DELTA 1 DEB, 42080

Orbit data source: Space-Track

DELTA 1 DEB, 42080 is space debris in LEO originally from a launch on Sun, 15 Dec 1968 UTC launched from the Air Force Western Test Range (AFWTR). Debris objects in space refer to the collection of defunct objects orbiting the Earth. Examples of debris include non-operational satellites, rocket bodies, and fragments generated from explosions, collisions, or faulty payload assembly.

Loading next visibility...
DELTA 1 DEB details
Identifier
42080, 1968-114G
Orbit
LEO
Last TLE update19 hours ago
Origin
Flag of USGSFC (US)
ManufacturerAerojet
MissionSpacecraft
Bus & MotorUnknown
MassUnknown
Launch date (UTC)
1968-12-15 (56 years ago)
Launch vehicleUnknown
Launch site
Air Force Western Test Range (AFWTR)
Object type
Payload
Rocket body
Debris
Shape & HBRUnknown
Radar Cross SectionSmall (<0.1 m²)

Expand to show TLE details & history

TLE from 19 hours ago
0 DELTA 1 DEB
1 42080U 68114G   24338.57958400 -.00000043  00000-0  37604-5 0  9995
2 42080 101.7712 277.7942 0067443 182.2027 352.5629 12.39286771499166
Epoch: 2024-12-03T13:54Z
Definitive object data (Epoch: 2024-12-03T13:54:36.057Z)
Latitude5.1473°
Longitude177.32719°
Altitude1,458.914 km
Speed7.157 km/s
True Right ascension06h 35m 27s
True Declination5° 07' 10"
Sunlit
Object was in full shadow at TLE epoch
Visualization TLE readout
Latitude51.04505°
Longitude-17.85248°
Altitude1,550.311 km
Speed7.082 km/s
Apparent Right ascension18h 03m 03s
Apparent Declination11° 55' 04"
Sunlit
Object is in daylight
Visualization observer readout
Local Sidereal Time06:31:54
Azimuth8.939° NNE
Elevation-37.734°
Doppler factor1
Orbital elements
Apogee altitude1,560.371 km
Perigee altitude1,454.009 km
Semi-major axis7,885.327 km
Eccentricity0.0067443
Inclination101.7712°
RAAN277.7942°
Arg. of periapsis182.2027°
True anomaly352.46202°
Mean anomaly352.5629°
Eccentric anomaly352.51255°
Mean motion3.09966 °/min
BSTAR0.0000037604
Orbital period116.14 mins
Loading maneuver chart data...
Loading historical data...
Loading historical data...
Loading historical data...
Loading historical data...
Loading historical data...
Loading historical data...
Loading historical data...

DELTA 1 DEB Visibility forecast

Observer location: undefined°, undefined

Span
Click to sort rows by Start time (UTC) header in descending order
Start Az.
Max El. time (UTC)
Max El. Az.
Max El.
End time (UTC)
End Az.
16 mins2024-12-04 08:57:45.818Z20.43° NNE2024-12-04 09:05:45.818Z94.196° ESE44.112°2024-12-04 09:13:45.818Z191.889° SSW
11 mins2024-12-04 10:53:45.818Z351.014° N2024-12-04 10:58:45.818Z309.801° NW23.265°2024-12-04 11:04:45.818Z258.881° W
11 mins2024-12-04 18:12:45.818Z98.122° ESE2024-12-04 18:17:45.818Z57.83° ENE23.406°2024-12-04 18:23:45.818Z8.377° NNE
16 mins2024-12-04 20:03:45.818Z166.834° S2024-12-04 20:10:45.818Z216.908° SW44.24°2024-12-04 20:19:45.818Z340.346° N
7 mins2024-12-04 22:03:45.818Z250.881° W2024-12-04 22:06:45.818Z273.176° WNW14.398°2024-12-04 22:10:45.818Z301.361° NW
14 mins2024-12-05 08:14:45.818Z34.796° NE2024-12-05 08:21:45.818Z104.097° ESE33.404°2024-12-05 08:28:45.818Z166.399° S
|